OSCAR 18 (WEBERSAT)

导读

OSCAR 18(别称WEBERSAT)是美国于1990年1月22日发射的业余无线电卫星。卫星未主动控制姿态,依靠无源磁棒稳定,搭载改进型CCD彩色摄像机与光谱仪,通过地平线探测器辅助设备指向与自旋测定,仅在观测窗开启设备以节约能源。作为业余卫星组织OSCAR系列成员,它承担空间实验与业余无线电通信试验任务,推动了业余航天领域技术探索。

基本信息
目录编号:
20441
目录名称:
OSCAR 18 (WEBERSAT)
国际标识:
1990-005F
轨道中心:
EARTH
卫星名称:
OSCAR 18 (WEBERSAT)
卫星全名:
--
卫星状态:
在轨 (已飞行13293 天)
发射日期:
1990-01-22 UTC
国别 :
美国 (US)
星等 :
--
轨道信息
数据来源 国际轨道数据
星历时间: 2026-06-15T05:03:43+0800
4小时前
查看轨道信息
半长轴: 7156.56km
偏心率: 0.00104
轨道倾角: 98.873°
近地点辐角 223.568°
升交点赤经 194.265°
平近点角 311.241°
近地点: 770.98km
远地点: 785.866km
周期: 100.419分钟
每日圈数: 14.339907
详细信息
使用方式:
暂无
2D轨道图
3D轨道图
轨道高度分析图
轨道倾角分析图
轨道综合分析图
查看轨道综合分析图